Wind_Speed
36 35 33 32 32 33 32 31 30 29 29 29 28 27 27 26 26 26 26 27 27 28 28 29 29 30 31 32 33 33 34 35 36 37 38 39 39 40 41 42 43 43 44 45
38 37 35 36 35 35 34 33 32 32 32 31 31 29 29 28 27 27 28 28 28 29 29 30 30 31 32 33 34 34 35 35 36 38 39 40 41 42 43 44 44 45 45 46
40 39 38 38 37 37 36 35 34 34 34 34 33 32 30 29 29 29 29 29 29 30 31 31 32 32 33 34 35 36 37 38 39 41 41 42 43 44 44 45 46 47 47 48
43 41 41 40 39 39 38 37 36 36 37 36 36 35 32 31 31 30 30 30 31 31 32 33 34 34 35 35 37 38 39 40 42 43 44 44 45 46 46 47 48 48 50 51
44 43 42 42 40 40 40 39 39 39 39 39 38 39 34 33 32 32 32 32 32 33 33 34 35 36 36 37 38 40 41 43 44 45 46 47 47 48 48 49 49 50 51 53
46 45 44 43 42 42 42 41 41 42 42 43 40 40 38 35 34 33 34 34 34 34 35 35 36 37 38 39 40 41 43 44 46 47 48 48 49 50 50 51 51 52 53 55
47 47 46 45 44 44 43 43 43 44 45 44 42 42 40 37 36 35 35 35 36 36 36 37 37 38 39 40 41 42 44 46 47 48 49 49 50 51 52 52 53 54 55 57
46 46 46 46 45 44 44 44 44 45 46 45 44 44 41 39 38 37 37 37 37 37 38 38 39 40 41 42 43 44 45 46 48 49 50 51 52 52 53 54 55 56 57 58
45 46 46 45 44 44 45 45 44 45 46 46 46 44 42 41 39 38 38 38 38 39 39 40 41 42 43 44 44 45 46 48 48 49 50 51 53 54 55 56 57 58 59 60
45 46 45 45 45 45 45 44 43 44 46 46 47 45 43 41 40 40 39 39 39 40 41 42 43 43 44 45 46 47 48 48 49 50 51 52 54 55 57 58 59 60 60 61
45 46 46 46 46 45 45 45 45 46 47 47 47 46 44 42 42 41 41 41 41 41 42 42 43 45 46 47 48 48 49 49 50 51 52 53 55 56 58 59 60 61 61 62
45 47 47 47 47 46 46 46 46 46 47 47 47 47 45 44 43 43 43 42 43 43 43 44 45 46 47 48 49 49 50 51 51 52 53 55 56 58 59 59 60 60 61 62
44 47 48 48 48 48 48 46 46 47 48 48 48 47 45 45 45 45 44 44 44 45 45 46 47 47 48 49 50 50 51 53 54 55 55 56 57 58 58 59 59 60 61 62
43 45 46 47 46 47 47 47 46 46 48 49 48 46 45 45 45 46 46 46 47 47 47 48 48 49 49 50 50 51 53 54 55 56 56 57 57 57 58 58 59 60 61 61
43 44 44 45 45 45 46 47 47 47 47 48 47 47 46 46 47 47 48 48 48 48 49 49 49 49 50 50 51 52 54 54 55 56 56 56 57 57 57 57 58 59 59 58
42 43 44 45 45 46 46 47 47 47 47 48 48 48 47 48 48 49 49 49 49 49 50 50 50 50 51 51 52 53 54 55 55 55 55 56 56 56 56 56 56 56 55 54
44 44 44 46 47 47 48 46 46 47 47 47 48 48 48 49 49 49 50 50 51 51 51 51 51 51 51 52 53 53 54 55 55 55 55 56 56 55 55 55 54 53 52 51
42 43 44 46 47 49 48 47 47 47 47 48 48 48 49 50 50 49 50 50 51 51 51 51 51 51 52 53 54 54 54 55 55 55 55 55 55 54 53 52 51 50 49 48
39 40 41 43 45 47 46 45 46 47 48 47 48 48 48 49 49 48 48 49 49 50 50 51 51 51 52 53 54 54 54 54 54 53 54 53 53 52 50 49 48 47 46 45
36 38 39 40 41 42 43 43 44 46 46 46 47 47 47 48 48 47 47 48 49 50 50 51 51 51 52 53 53 53 52 52 51 51 51 51 50 49 48 47 46 45 44 43
36 36 37 37 38 38 39 40 41 42 43 44 45 45 45 46 47 46 47 47 48 49 50 50 50 51 51 51 51 50 49 48 49 49 49 49 48 47 47 46 45 43 42 41
34 35 36 35 36 35 35 37 38 39 40 41 41 42 43 43 44 44 44 45 46 46 47 47 48 48 49 49 48 47 47 46 47 48 48 47 46 46 45 44 42 41 40 38
33 34 34 35 34 35 35 36 37 38 39 39 40 40 40 41 41 42 43 44 44 45 46 47 47 47 47 48 47 47 46 46 46 46 45 44 43 43 43 42 40 39 37 35
32 32 33 33 33 34 35 35 36 37 37 38 39 39 39 40 40 40 41 42 42 44 45 46 47 47 47 47 47 46 46 46 46 45 44 42 41 41 40 39 37 35 34 32
32 32 32 32 32 34 34 34 35 36 36 37 38 39 39 39 40 40 40 40 42 43 44 46 46 46 46 46 46 45 45 44 44 43 41 40 39 39 38 36 34 32 30 29
31 32 33 33 33 34 34 34 35 35 36 37 38 38 39 39 40 40 40 41 42 43 44 44 44 44 44 44 43 42 42 41 41 40 39 38 37 36 35 33 31 30 28 27
Wind_Direction
242 242 244 245 245 245 245 245 247 248 249 250 250 250 253 255 256 257 258 259 260 261 263 264 266 267 266 266 266 268 270 272 273 275 277 277 277 278 278 278 279 279 278 278
242 243 243 243 244 246 246 247 248 249 251 252 251 251 253 256 258 259 260 260 261 263 264 266 267 269 269 269 269 270 271 273 275 277 278 279 279 279 279 279 279 279 279 280
242 243 243 244 245 246 247 248 249 251 252 252 253 251 253 256 258 259 261 262 263 265 266 267 268 270 271 272 272 272 273 275 277 279 279 280 280 280 280 280 280 279 280 281
241 242 243 244 245 247 248 249 250 252 253 254 254 254 252 255 258 259 261 263 265 266 267 268 270 271 273 274 275 276 276 277 278 280 280 281 281 281 281 281 281 280 281 283
242 242 243 244 245 247 248 249 251 252 254 254 255 257 255 256 258 261 263 264 265 266 268 269 271 272 273 274 276 277 278 279 279 280 281 281 282 282 282 282 281 282 283 284
241 242 243 244 245 246 248 249 250 252 254 255 255 258 258 257 259 261 263 265 266 267 268 270 271 273 274 275 277 278 280 281 281 282 282 282 283 282 281 281 282 283 284 285
242 242 243 244 245 246 248 249 252 253 254 256 257 258 260 261 261 262 264 265 267 268 269 271 273 274 275 276 278 279 281 282 283 283 283 283 283 283 282 282 282 283 284 284
241 242 243 243 244 246 248 249 251 254 256 257 258 258 260 262 263 264 265 266 268 269 271 272 274 274 275 277 278 280 282 283 284 284 284 284 284 284 283 283 283 284 284 285
241 241 241 242 242 244 245 247 250 253 255 257 258 258 259 261 263 264 266 267 268 269 271 272 274 275 276 278 279 281 283 284 284 284 285 285 285 285 284 284 284 285 285 286
239 240 240 241 241 242 245 246 247 250 254 256 258 259 260 261 264 265 267 268 269 270 272 273 275 277 278 279 280 282 284 284 285 286 286 287 287 287 286 286 285 286 286 287
239 240 240 241 241 243 244 246 248 251 253 256 259 261 262 264 265 267 268 269 271 272 273 275 276 278 279 280 282 283 284 285 285 287 288 288 289 288 288 287 287 287 287 288
239 241 241 242 243 243 245 246 248 250 253 256 259 261 263 265 267 268 269 271 272 274 275 276 278 279 280 282 283 283 284 285 286 287 288 289 290 290 289 289 289 289 289 289
238 240 242 243 243 244 245 246 248 250 252 255 257 260 262 265 267 269 270 271 273 274 276 277 279 281 282 282 283 284 285 286 286 288 289 291 291 292 291 290 290 291 291 290
239 240 242 245 247 247 247 248 249 251 252 255 257 260 262 265 267 269 271 272 273 275 276 278 280 281 282 283 283 284 285 286 288 289 290 291 292 292 291 291 291 292 292 291
240 241 242 243 244 245 247 248 249 251 253 256 257 259 261 263 265 268 270 272 274 275 277 278 280 281 282 283 285 286 286 287 288 289 291 291 292 292 292 291 292 292 292 292
240 243 243 244 245 246 247 248 250 251 253 255 257 258 260 262 265 268 270 272 273 274 276 277 279 280 282 283 285 286 287 287 288 290 291 292 292 292 292 292 293 293 293 292
241 243 245 246 246 247 248 249 252 253 255 257 259 260 261 262 264 266 268 270 272 274 275 277 279 281 282 283 284 286 287 288 289 290 291 291 291 291 291 292 293 293 293 292
242 244 247 248 248 249 251 251 252 254 255 258 259 260 261 262 264 266 268 270 272 274 275 277 279 281 282 283 285 286 287 288 289 290 291 291 291 291 292 292 292 293 293 292
242 244 246 249 251 252 253 254 256 257 257 259 260 261 262 263 264 267 269 271 273 274 276 278 279 281 283 284 286 287 287 287 288 289 290 290 291 291 292 292 292 293 292 292
242 243 245 248 252 254 254 255 257 259 260 260 261 262 262 263 265 267 269 271 273 274 276 278 280 282 283 285 286 287 286 287 287 288 290 291 291 291 291 292 292 292 292 291
246 247 248 250 253 255 256 257 258 260 261 262 263 263 264 265 267 269 270 272 273 275 276 278 280 282 283 285 286 286 286 286 287 288 290 291 291 291 292 292 292 292 292 292
251 252 252 254 256 257 258 259 259 262 263 264 265 266 267 268 269 270 272 273 275 276 277 278 279 281 283 284 285 285 285 286 287 288 289 289 289 290 291 291 291 292 292 291
252 253 255 255 257 257 258 260 261 263 264 266 266 266 267 268 270 272 274 275 276 277 278 279 280 282 283 285 285 285 285 286 287 288 288 289 289 290 291 291 291 291 290 290
252 254 255 256 256 256 256 259 261 263 264 266 267 267 268 268 271 274 276 277 278 279 280 281 282 282 283 284 284 284 285 286 287 287 288 288 288 290 291 291 290 290 288 287
252 253 254 256 258 256 256 258 260 261 264 265 267 267 269 270 272 274 276 278 280 281 282 282 282 281 282 283 284 284 285 287 287 288 287 286 287 288 289 290 289 288 287 285
255 257 257 258 258 258 259 260 261 262 263 265 265 266 267 270 272 274 277 279 281 282 282 282 282 282 282 283 283 284 285 286 287 287 286 285 285 287 287 287 286 285 284 283
Height
5694 5698 5701 5705 5706 5708 5710 5712 5714 5717 5717 5719 5721 5723 5725 5725 5727 5728 5730 5731 5732 5733 5733 5733 5734 5734 5734 5735 5735 5735 5735 5735 5734 5734 5733 5733 5732 5731 5730 5728 5727 5726 5725 5723
5686 5690 5694 5695 5697 5700 5702 5705 5708 5709 5710 5712 5714 5716 5718 5719 5721 5722 5723 5724 5725 5726 5726 5727 5727 5727 5727 5727 5727 5727 5727 5726 5726 5725 5724 5723 5722 5721 5719 5718 5716 5715 5713 5712
5677 5683 5685 5687 5690 5692 5695 5698 5700 5702 5703 5704 5706 5709 5712 5713 5714 5715 5716 5717 5718 5718 5719 5719 5719 5719 5719 5719 5719 5718 5718 5717 5716 5715 5714 5713 5712 5710 5709 5707 5706 5704 5702 5700
5666 5672 5675 5678 5681 5684 5687 5690 5692 5693 5694 5696 5699 5700 5706 5706 5707 5708 5710 5710 5711 5711 5711 5711 5711 5711 5711 5710 5710 5709 5709 5708 5707 5705 5703 5702 5700 5699 5698 5696 5694 5692 5690 5688
5657 5662 5665 5669 5673 5675 5678 5681 5683 5684 5685 5687 5690 5691 5697 5699 5700 5701 5702 5703 5703 5703 5703 5703 5703 5702 5702 5702 5701 5700 5699 5698 5696 5694 5692 5690 5688 5687 5685 5683 5682 5680 5677 5675
5646 5651 5655 5659 5663 5665 5668 5671 5673 5674 5675 5678 5683 5683 5687 5691 5693 5694 5694 5694 5694 5694 5694 5694 5694 5693 5693 5692 5691 5690 5689 5687 5685 5682 5680 5677 5675 5674 5672 5670 5669 5667 5664 5662
5636 5640 5644 5649 5652 5655 5659 5662 5663 5664 5665 5669 5673 5674 5678 5682 5684 5685 5685 5685 5685 5685 5685 5685 5685 5685 5684 5683 5681 5680 5678 5676 5673 5670 5667 5665 5662 5660 5658 5656 5655 5653 5651 5648
5625 5630 5634 5638 5642 5645 5648 5651 5654 5656 5657 5660 5662 5664 5670 5672 5673 5674 5675 5676 5676 5676 5676 5676 5675 5675 5673 5672 5671 5669 5667 5665 5662 5658 5656 5653 5650 5647 5644 5643 5641 5638 5636 5633
5614 5619 5623 5627 5631 5635 5637 5640 5644 5645 5646 5649 5651 5655 5660 5662 5663 5664 5665 5666 5666 5666 5666 5666 5665 5664 5663 5662 5660 5658 5656 5653 5650 5647 5643 5640 5637 5634 5631 5629 5626 5623 5620 5617
5602 5607 5611 5615 5619 5623 5627 5630 5633 5634 5635 5638 5641 5645 5650 5652 5653 5654 5655 5655 5656 5656 5656 5655 5654 5653 5652 5650 5648 5646 5644 5641 5638 5635 5631 5628 5624 5621 5617 5614 5611 5608 5605 5601
5591 5596 5600 5605 5609 5613 5617 5620 5622 5624 5626 5629 5631 5638 5639 5641 5643 5643 5644 5644 5644 5645 5644 5644 5643 5642 5640 5638 5637 5635 5632 5629 5626 5623 5619 5615 5611 5607 5603 5600 5596 5592 5589 5585
5581 5584 5589 5594 5598 5601 5605 5608 5611 5615 5616 5618 5621 5629 5628 5630 5631 5632 5632 5633 5633 5633 5633 5632 5631 5630 5628 5627 5625 5622 5620 5616 5613 5610 5606 5602 5597 5593 5589 5585 5580 5576 5573 5568
5569 5573 5578 5582 5588 5591 5594 5597 5600 5603 5605 5607 5610 5618 5618 5619 5619 5620 5621 5621 5621 5621 5621 5620 5619 5618 5616 5614 5612 5609 5606 5603 5600 5596 5592 5588 5583 5578 5574 5570 5566 5561 5557 5552
5559 5562 5568 5573 5576 5580 5583 5587 5590 5591 5593 5596 5601 5606 5608 5608 5608 5608 5608 5609 5609 5609 5609 5608 5607 5606 5604 5602 5599 5596 5593 5590 5586 5583 5578 5574 5569 5564 5560 5555 5551 5546 5541 5536
5548 5552 5556 5561 5564 5568 5571 5575 5578 5580 5583 5586 5591 5593 5596 5596 5596 5596 5596 5596 5596 5597 5596 5595 5594 5593 5591 5589 5586 5583 5580 5576 5573 5569 5565 5560 5555 5550 5545 5541 5536 5531 5526 5521
5538 5542 5546 5550 5553 5556 5559 5563 5566 5569 5572 5574 5577 5581 5583 5583 5583 5584 5584 5584 5584 5584 5583 5582 5581 5580 5578 5576 5573 5570 5566 5563 5559 5555 5551 5546 5541 5536 5531 5527 5522 5518 5513 5508
5529 5532 5536 5539 5542 5543 5548 5554 5556 5559 5561 5563 5565 5570 5570 5570 5571 5571 5571 5571 5571 5571 5570 5569 5568 5567 5564 5562 5559 5556 5553 5549 5545 5541 5536 5532 5527 5522 5518 5513 5509 5504 5500 5495
5519 5522 5525 5528 5531 5534 5542 5544 5545 5547 5549 5551 5553 5555 5556 5557 5558 5558 5558 5558 5558 5558 5557 5556 5555 5553 5551 5548 5545 5542 5539 5535 5531 5527 5523 5518 5514 5509 5505 5501 5496 5492 5487 5483
5510 5513 5515 5518 5520 5523 5529 5532 5533 5535 5537 5539 5540 5542 5543 5544 5545 5547 5546 5546 5545 5544 5544 5542 5541 5539 5537 5534 5531 5528 5524 5521 5517 5513 5509 5504 5500 5496 5493 5489 5484 5480 5475 5472
5500 5503 5506 5508 5510 5514 5520 5521 5521 5523 5525 5527 5528 5529 5531 5531 5533 5535 5534 5533 5532 5531 5530 5528 5527 5525 5522 5520 5517 5513 5510 5507 5503 5500 5496 5492 5488 5484 5480 5477 5473 5469 5464 5461
5492 5494 5496 5498 5500 5503 5508 5509 5510 5513 5515 5515 5516 5517 5518 5519 5520 5521 5520 5520 5519 5517 5516 5515 5513 5511 5508 5506 5503 5500 5497 5493 5490 5487 5483 5480 5476 5472 5469 5465 5461 5457 5454 5450
5483 5485 5488 5490 5492 5498 5497 5498 5501 5501 5502 5503 5504 5505 5506 5506 5507 5507 5507 5506 5505 5504 5503 5501 5499 5497 5494 5491 5489 5486 5483 5480 5477 5474 5471 5468 5464 5461 5457 5454 5451 5447 5443 5440
5475 5478 5479 5482 5485 5486 5486 5488 5489 5490 5491 5492 5493 5493 5494 5495 5495 5495 5495 5494 5492 5491 5489 5487 5485 5484 5481 5478 5475 5473 5471 5468 5465 5462 5459 5456 5453 5450 5446 5443 5440 5437 5434 5431
5467 5468 5470 5472 5474 5475 5476 5477 5478 5479 5480 5481 5482 5483 5483 5484 5484 5484 5483 5482 5480 5478 5476 5474 5472 5470 5468 5465 5462 5460 5458 5455 5453 5450 5448 5445 5442 5440 5436 5433 5430 5428 5425 5423
5458 5459 5461 5462 5464 5465 5467 5468 5468 5469 5470 5471 5472 5472 5472 5472 5472 5472 5471 5470 5468 5466 5464 5461 5459 5457 5455 5453 5450 5447 5445 5443 5440 5438 5436 5434 5431 5429 5427 5424 5421 5419 5417 5414
5450 5451 5452 5453 5455 5456 5457 5458 5459 5459 5460 5461 5461 5462 5461 5461 5461 5460 5459 5458 5456 5454 5451 5449 5447 5445 5443 5440 5438 5435 5433 5431 5429 5428 5426 5423 5421 5419 5417 5415 5413 5410 5409 5407